Погода в Теребени

Россия / Калужская область     53°25′43″N   35°15′54″E
темп.,
°C
ветер,
м/с
пор.,
м/с
влажн.,
%
обл.,
%
осадки,
мм/ч
давл.,
гПа
погр.,
м
5 марта, пт
пт500:00−2зсз4994100 0.0 1004552
03:00−4ссз2695100 0.3 1006200
06:00−6зсз259755 0.0 1009108
09:00−5зсз249240 0.0 1010180
12:00−2сз348285 0.1 1012699
15:00−1зсз347090 0.3 10121048
18:00−3зсз238358 0.1 101440
21:00−6з229149 0.1 101529
6 марта, сб
сб600:00−6зюз229355 0.0 101666
03:00−8зюз239537 0.0 101776
06:00−8з259770 0.0 1017187
09:00−5ссз498585 0.2 1018693
12:00−4ссз476883 0.0 10191074
15:00−3сз466257 0.1 10181377
18:00−5зсз267631 0.1 1018185
21:00−7з398630 0.1 1019247
7 марта, вс
вс700:00−8зюз38880 0.0 1018264
03:00−8юз412860 0.0 1016411
06:00−6юз6147692 0.0 1012768
09:00−4юз8177596 0.0 10071134
12:00−2зюз91789100 1.1 10021265
15:00−3зсз71667100 2.9 10021482
18:00−5з4116633 0.0 1005762
21:00−7зюз4137317 0.0 1005496
8 марта, пн
пн800:00−7юз514720 0.0 1003539
03:00−6зюз5138628 0.0 1001737
06:00−6з5118371 0.1 1001914
09:00−8зсз5107161 0.1 10041218
12:00−6зсз696072 0.3 10061565
15:00−5зсз696235 0.3 10081265
18:00−6зсз397859 0.0 1009765
21:00−8з389275 0.0 1011257
9 марта, вт
вт900:00−8зсз269538 0.1 1012325
03:00−9ссз259467 0.1 1013353
06:00−10ссз3689100 0.1 1015562
09:00−12ссз3683100 0.1 1017637
12:00−10ссз3674100 0.0 1018662
15:00−7сз466463 0.0 10191009
18:00−9зсз26770 0.0 1019251
21:00−9з379039 0.1 1020452